Location: *
(50.6089°N, 2.2719°E)
Time: 11:09:24
(UTC+00:00)

Cosmos 292 Rocket - Pass Details

Date: 18 October 2019
Orbit: 673 x 694 km, 74.0° (Epoch: 14 November)

Event Time Altitude Azimuth Distance (km) Brightness Sun altitude
Rises 18:51:47 0° 216° (SW) 3,015 7.5 -19.5°
Reaches altitude 10° 18:54:07 10° 222° (SW) 2,104 6.7 -19.8°
Maximum altitude 18:58:45 53° 299° (WNW) 831 4.5 -20.6°
Drops below altitude 10° 19:03:25 10° 17° (NNE) 2,122 6.2 -21.3°
Sets 19:05:47 0° 22° (NNE) 3,043 7.0 -21.7°
